owner,sensor,date,latitude,longitude,vertical_datum,sea_water_practical_salinity,qcFlag 
TABS,ioos:station:wmo:42048:1,2016-05-04T23:00:00Z,27.9396,-96.8429,2.0,20.5099,11111222 
TABS,ioos:station:wmo:42048:1,2016-05-04T23:30:00Z,27.9396,-96.8429,2.0,20.4589,11111222 
TABS,ioos:station:wmo:42048:1,2016-05-05T00:00:00Z,27.9396,-96.8429,2.0,20.5354,11111222 
TABS,ioos:station:wmo:42048:1,2016-05-05T00:30:00Z,27.9396,-96.8429,2.0,20.528,11111222 
TABS,ioos:station:wmo:42048:1,2016-05-05T01:00:00Z,27.9396,-96.8429,2.0,20.5516,11111222 
TABS,ioos:station:wmo:42048:1,2016-05-05T01:30:00Z,27.9396,-96.8429,2.0,20.6148,11111222 
TABS,ioos:station:wmo:42048:1,2016-05-05T02:00:00Z,27.9396,-96.8429,2.0,20.5546,11111222 
TABS,ioos:station:wmo:42048:1,2016-05-05T02:30:00Z,27.9396,-96.8429,2.0,20.5867,11111222 
TABS,ioos:station:wmo:42048:1,2016-05-05T03:00:00Z,27.9396,-96.8429,2.0,20.5893,11111222 
TABS,ioos:station:wmo:42048:1,2016-05-05T03:30:00Z,27.9396,-96.8429,2.0,20.5886,11111222 
TABS,ioos:station:wmo:42048:1,2016-05-05T04:00:00Z,27.9396,-96.8429,2.0,20.5935,11111222 
TABS,ioos:station:wmo:42048:1,2016-05-05T04:30:00Z,27.9396,-96.8429,2.0,20.5938,11111222 
TABS,ioos:station:wmo:42048:1,2016-05-05T05:00:00Z,27.9396,-96.8429,2.0,20.6105,11111222 
TABS,ioos:station:wmo:42048:1,2016-05-05T05:30:00Z,27.9396,-96.8429,2.0,20.6099,11111222 
TABS,ioos:station:wmo:42048:1,2016-05-05T06:00:00Z,27.9396,-96.8429,2.0,20.6199,11111222 
TABS,ioos:station:wmo:42048:1,2016-05-05T06:30:00Z,27.9396,-96.8429,2.0,20.6636,11111222 
TABS,ioos:station:wmo:42048:1,2016-05-05T07:00:00Z,27.9396,-96.8429,2.0,20.7028,11111222 
TABS,ioos:station:wmo:42048:1,2016-05-05T07:30:00Z,27.9396,-96.8429,2.0,20.7317,11111222 
TABS,ioos:station:wmo:42048:1,2016-05-05T08:00:00Z,27.9396,-96.8429,2.0,20.7472,11111222 
TABS,ioos:station:wmo:42048:1,2016-05-05T08:30:00Z,27.9396,-96.8429,2.0,20.7896,11111222 
TABS,ioos:station:wmo:42048:1,2016-05-05T09:00:00Z,27.9396,-96.8429,2.0,20.7835,11111222 
TABS,ioos:station:wmo:42048:1,2016-05-05T09:30:00Z,27.9396,-96.8429,2.0,20.8138,11111222 
TABS,ioos:station:wmo:42048:1,2016-05-05T10:00:00Z,27.9396,-96.8429,2.0,20.8624,11111222 
TABS,ioos:station:wmo:42048:1,2016-05-05T10:30:00Z,27.9396,-96.8429,2.0,20.9301,11111222 
TABS,ioos:station:wmo:42048:1,2016-05-05T11:00:00Z,27.9396,-96.8429,2.0,20.988,11111222 
TABS,ioos:station:wmo:42048:1,2016-05-05T11:30:00Z,27.9396,-96.8429,2.0,21.0308,11111222 
TABS,ioos:station:wmo:42048:1,2016-05-05T12:00:00Z,27.9396,-96.8429,2.0,21.034,11111222 
TABS,ioos:station:wmo:42048:1,2016-05-05T12:30:00Z,27.9396,-96.8429,2.0,21.059,11111222 
TABS,ioos:station:wmo:42048:1,2016-05-05T13:00:00Z,27.9396,-96.8429,2.0,21.0414,11111222 
TABS,ioos:station:wmo:42048:1,2016-05-05T13:30:00Z,27.9396,-96.8429,2.0,21.0698,11111222 
TABS,ioos:station:wmo:42048:1,2016-05-05T14:00:00Z,27.9396,-96.8429,2.0,21.0566,11111222 
TABS,ioos:station:wmo:42048:1,2016-05-05T14:30:00Z,27.9396,-96.8429,2.0,21.0975,11111222 
TABS,ioos:station:wmo:42048:1,2016-05-05T15:00:00Z,27.9396,-96.8429,2.0,21.0631,11111222 
TABS,ioos:station:wmo:42048:1,2016-05-05T15:30:00Z,27.9396,-96.8429,2.0,21.0878,11111222 
TABS,ioos:station:wmo:42048:1,2016-05-05T16:00:00Z,27.9396,-96.8429,2.0,21.0793,11111222 
TABS,ioos:station:wmo:42048:1,2016-05-05T16:30:00Z,27.9396,-96.8429,2.0,21.1053,11111222 
TABS,ioos:station:wmo:42048:1,2016-05-05T17:00:00Z,27.9396,-96.8429,2.0,21.0736,11111222 
TABS,ioos:station:wmo:42048:1,2016-05-05T17:30:00Z,27.9396,-96.8429,2.0,21.0772,11111222 
TABS,ioos:station:wmo:42048:1,2016-05-05T18:00:00Z,27.9396,-96.8429,2.0,21.0622,11111222 
TABS,ioos:station:wmo:42048:1,2016-05-05T18:30:00Z,27.9396,-96.8429,2.0,21.038,11111222 
TABS,ioos:station:wmo:42048:1,2016-05-05T19:00:00Z,27.9396,-96.8429,2.0,21.0194,11111222 
TABS,ioos:station:wmo:42048:1,2016-05-05T19:30:00Z,27.9396,-96.8429,2.0,21.0155,11111222 
TABS,ioos:station:wmo:42048:1,2016-05-05T20:00:00Z,27.9396,-96.8429,2.0,21.0013,11111222 
TABS,ioos:station:wmo:42048:1,2016-05-05T20:30:00Z,27.9396,-96.8429,2.0,21.0086,11111222 
TABS,ioos:station:wmo:42048:1,2016-05-05T21:00:00Z,27.9396,-96.8429,2.0,20.9815,11111222 
TABS,ioos:station:wmo:42048:1,2016-05-05T21:30:00Z,27.9396,-96.8429,2.0,20.9883,11111222 
TABS,ioos:station:wmo:42048:1,2016-05-05T22:00:00Z,27.9396,-96.8429,2.0,20.9492,11111222 
TABS,ioos:station:wmo:42048:1,2016-05-05T22:30:00Z,27.9396,-96.8429,2.0,20.9159,11111222 
TABS,ioos:station:wmo:42048:1,2016-05-05T23:00:00Z,27.9396,-96.8429,2.0,20.9609,11111222 
TABS,ioos:station:wmo:42048:1,2016-05-05T23:30:00Z,27.9396,-96.8429,2.0,21.0082,11111222 
TABS,ioos:station:wmo:42048:1,2016-05-06T00:00:00Z,27.9396,-96.8429,2.0,21.0443,11111222 
TABS,ioos:station:wmo:42048:1,2016-05-06T00:30:00Z,27.9396,-96.8429,2.0,21.0596,11111222 
TABS,ioos:station:wmo:42048:1,2016-05-06T01:00:00Z,27.9396,-96.8429,2.0,21.0837,11111222 
TABS,ioos:station:wmo:42048:1,2016-05-06T01:30:00Z,27.9396,-96.8429,2.0,21.0907,11111222 
TABS,ioos:station:wmo:42048:1,2016-05-06T02:00:00Z,27.9396,-96.8429,2.0,21.0987,11111222 
TABS,ioos:station:wmo:42048:1,2016-05-06T02:30:00Z,27.9396,-96.8429,2.0,21.0932,11111222 
TABS,ioos:station:wmo:42048:1,2016-05-06T03:00:00Z,27.9396,-96.8429,2.0,21.1183,11111222 
TABS,ioos:station:wmo:42048:1,2016-05-06T03:30:00Z,27.9396,-96.8429,2.0,21.1352,11111222 
TABS,ioos:station:wmo:42048:1,2016-05-06T04:00:00Z,27.9396,-96.8429,2.0,21.1487,11111222 
TABS,ioos:station:wmo:42048:1,2016-05-06T04:30:00Z,27.9396,-96.8429,2.0,21.151,11111222 
TABS,ioos:station:wmo:42048:1,2016-05-06T05:00:00Z,27.9396,-96.8429,2.0,21.1803,11111222 
TABS,ioos:station:wmo:42048:1,2016-05-06T05:30:00Z,27.9396,-96.8429,2.0,21.1755,11111222 
TABS,ioos:station:wmo:42048:1,2016-05-06T06:00:00Z,27.9396,-96.8429,2.0,21.2716,11111222 
TABS,ioos:station:wmo:42048:1,2016-05-06T06:30:00Z,27.9396,-96.8429,2.0,21.2554,11111222 
TABS,ioos:station:wmo:42048:1,2016-05-06T07:00:00Z,27.9396,-96.8429,2.0,21.2963,11111222 
TABS,ioos:station:wmo:42048:1,2016-05-06T07:30:00Z,27.9396,-96.8429,2.0,21.4234,11111222 
TABS,ioos:station:wmo:42048:1,2016-05-06T08:00:00Z,27.9396,-96.8429,2.0,21.3731,11111222 
TABS,ioos:station:wmo:42048:1,2016-05-06T08:30:00Z,27.9396,-96.8429,2.0,21.3416,11111222 
TABS,ioos:station:wmo:42048:1,2016-05-06T09:00:00Z,27.9396,-96.8429,2.0,21.344,11111222 
TABS,ioos:station:wmo:42048:1,2016-05-06T09:30:00Z,27.9396,-96.8429,2.0,21.3615,11111222 
TABS,ioos:station:wmo:42048:1,2016-05-06T10:00:00Z,27.9396,-96.8429,2.0,21.3846,11111222 
TABS,ioos:station:wmo:42048:1,2016-05-06T10:30:00Z,27.9396,-96.8429,2.0,21.4107,11111222 
TABS,ioos:station:wmo:42048:1,2016-05-06T11:00:00Z,27.9396,-96.8429,2.0,21.4101,11111222 
TABS,ioos:station:wmo:42048:1,2016-05-06T11:30:00Z,27.9396,-96.8429,2.0,21.4146,11111222 
TABS,ioos:station:wmo:42048:1,2016-05-06T12:00:00Z,27.9396,-96.8429,2.0,21.4009,11111222 
TABS,ioos:station:wmo:42048:1,2016-05-06T12:30:00Z,27.9396,-96.8429,2.0,21.3941,11111222 
TABS,ioos:station:wmo:42048:1,2016-05-06T13:00:00Z,27.9396,-96.8429,2.0,21.4178,11111222 
TABS,ioos:station:wmo:42048:1,2016-05-06T13:30:00Z,27.9396,-96.8429,2.0,21.4093,11111222 
TABS,ioos:station:wmo:42048:1,2016-05-06T14:00:00Z,27.9396,-96.8429,2.0,21.419,11111222 
TABS,ioos:station:wmo:42048:1,2016-05-06T14:30:00Z,27.9396,-96.8429,2.0,21.4457,11111222 
TABS,ioos:station:wmo:42048:1,2016-05-06T15:00:00Z,27.9396,-96.8429,2.0,21.4351,11111222 
TABS,ioos:station:wmo:42048:1,2016-05-06T15:30:00Z,27.9396,-96.8429,2.0,21.4508,11111222 
TABS,ioos:station:wmo:42048:1,2016-05-06T16:00:00Z,27.9396,-96.8429,2.0,21.4918,11111222 
TABS,ioos:station:wmo:42048:1,2016-05-06T16:30:00Z,27.9396,-96.8429,2.0,21.5847,11111222 
TABS,ioos:station:wmo:42048:1,2016-05-06T17:00:00Z,27.9396,-96.8429,2.0,21.6478,11111222 
TABS,ioos:station:wmo:42048:1,2016-05-06T17:30:00Z,27.9396,-96.8429,2.0,21.6649,11111222 
TABS,ioos:station:wmo:42048:1,2016-05-06T18:00:00Z,27.9396,-96.8429,2.0,21.6911,11111222 
TABS,ioos:station:wmo:42048:1,2016-05-06T18:30:00Z,27.9396,-96.8429,2.0,21.6813,11111222 
TABS,ioos:station:wmo:42048:1,2016-05-06T19:00:00Z,27.9396,-96.8429,2.0,21.6654,11111222 
TABS,ioos:station:wmo:42048:1,2016-05-06T19:30:00Z,27.9396,-96.8429,2.0,21.6754,11111222 
TABS,ioos:station:wmo:42048:1,2016-05-06T20:00:00Z,27.9396,-96.8429,2.0,21.6867,11111222 
TABS,ioos:station:wmo:42048:1,2016-05-06T20:30:00Z,27.9396,-96.8429,2.0,21.703,11111222 
TABS,ioos:station:wmo:42048:1,2016-05-06T21:00:00Z,27.9396,-96.8429,2.0,21.7124,11111222 
TABS,ioos:station:wmo:42048:1,2016-05-06T21:30:00Z,27.9396,-96.8429,2.0,21.7133,11111222 
TABS,ioos:station:wmo:42048:1,2016-05-06T22:00:00Z,27.9396,-96.8429,2.0,21.7296,11111222 
TABS,ioos:station:wmo:42048:1,2016-05-06T22:30:00Z,27.9396,-96.8429,2.0,21.735,11111222 
TABS,ioos:station:wmo:42048:1,2016-05-06T23:00:00Z,27.9396,-96.8429,2.0,21.6594,11111222 
TABS,ioos:station:wmo:42048:1,2016-05-06T23:30:00Z,27.9396,-96.8429,2.0,21.7072,11111222 
TABS,ioos:station:wmo:42048:1,2016-05-07T00:00:00Z,27.9396,-96.8429,2.0,21.7719,11111222 
TABS,ioos:station:wmo:42048:1,2016-05-07T00:30:00Z,27.9396,-96.8429,2.0,21.7585,11111222 
TABS,ioos:station:wmo:42048:1,2016-05-07T01:00:00Z,27.9396,-96.8429,2.0,21.7877,11111222 
TABS,ioos:station:wmo:42048:1,2016-05-07T01:30:00Z,27.9396,-96.8429,2.0,21.8255,11111222 
TABS,ioos:station:wmo:42048:1,2016-05-07T02:00:00Z,27.9396,-96.8429,2.0,21.841,11111222 
TABS,ioos:station:wmo:42048:1,2016-05-07T02:30:00Z,27.9396,-96.8429,2.0,21.8682,11111222 
TABS,ioos:station:wmo:42048:1,2016-05-07T03:00:00Z,27.9396,-96.8429,2.0,21.8611,11111222 
TABS,ioos:station:wmo:42048:1,2016-05-07T03:30:00Z,27.9396,-96.8429,2.0,21.8915,11111222 
TABS,ioos:station:wmo:42048:1,2016-05-07T04:00:00Z,27.9396,-96.8429,2.0,21.9949,11111222 
TABS,ioos:station:wmo:42048:1,2016-05-07T04:30:00Z,27.9396,-96.8429,2.0,21.9616,11111222 
TABS,ioos:station:wmo:42048:1,2016-05-07T05:00:00Z,27.9396,-96.8429,2.0,22.0022,11111222 
TABS,ioos:station:wmo:42048:1,2016-05-07T05:30:00Z,27.9396,-96.8429,2.0,22.0352,11111222 
TABS,ioos:station:wmo:42048:1,2016-05-07T06:00:00Z,27.9396,-96.8429,2.0,22.1019,11111222 
TABS,ioos:station:wmo:42048:1,2016-05-07T06:30:00Z,27.9396,-96.8429,2.0,22.0564,11111222 
TABS,ioos:station:wmo:42048:1,2016-05-07T07:00:00Z,27.9396,-96.8429,2.0,22.033,11111222 
TABS,ioos:station:wmo:42048:1,2016-05-07T07:30:00Z,27.9396,-96.8429,2.0,22.0757,11111222 
TABS,ioos:station:wmo:42048:1,2016-05-07T08:00:00Z,27.9396,-96.8429,2.0,22.1211,11111222 
TABS,ioos:station:wmo:42048:1,2016-05-07T08:30:00Z,27.9396,-96.8429,2.0,22.0931,11111222 
TABS,ioos:station:wmo:42048:1,2016-05-07T09:00:00Z,27.9396,-96.8429,2.0,22.0956,11111222 
TABS,ioos:station:wmo:42048:1,2016-05-07T09:30:00Z,27.9396,-96.8429,2.0,22.1097,11111222 
TABS,ioos:station:wmo:42048:1,2016-05-07T10:00:00Z,27.9396,-96.8429,2.0,22.1246,11111222 
TABS,ioos:station:wmo:42048:1,2016-05-07T10:30:00Z,27.9396,-96.8429,2.0,22.1657,11111222 
TABS,ioos:station:wmo:42048:1,2016-05-07T11:00:00Z,27.9396,-96.8429,2.0,22.2259,11111222 
TABS,ioos:station:wmo:42048:1,2016-05-07T11:30:00Z,27.9396,-96.8429,2.0,22.3116,11111222 
TABS,ioos:station:wmo:42048:1,2016-05-07T12:00:00Z,27.9396,-96.8429,2.0,22.3497,11111222 
TABS,ioos:station:wmo:42048:1,2016-05-07T12:30:00Z,27.9396,-96.8429,2.0,22.336,11111222 
TABS,ioos:station:wmo:42048:1,2016-05-07T13:00:00Z,27.9396,-96.8429,2.0,22.3651,11111222 
TABS,ioos:station:wmo:42048:1,2016-05-07T13:30:00Z,27.9396,-96.8429,2.0,22.3812,11111222 
TABS,ioos:station:wmo:42048:1,2016-05-07T14:00:00Z,27.9396,-96.8429,2.0,22.4098,11111222 
TABS,ioos:station:wmo:42048:1,2016-05-07T14:30:00Z,27.9396,-96.8429,2.0,22.4726,11111222 
TABS,ioos:station:wmo:42048:1,2016-05-07T15:00:00Z,27.9396,-96.8429,2.0,22.4721,11111222 
TABS,ioos:station:wmo:42048:1,2016-05-07T15:30:00Z,27.9396,-96.8429,2.0,22.5434,11111222 
TABS,ioos:station:wmo:42048:1,2016-05-07T16:00:00Z,27.9396,-96.8429,2.0,22.5321,11111222 
TABS,ioos:station:wmo:42048:1,2016-05-07T16:30:00Z,27.9396,-96.8429,2.0,22.5686,11111222 
TABS,ioos:station:wmo:42048:1,2016-05-07T17:00:00Z,27.9396,-96.8429,2.0,22.5856,11111222 
TABS,ioos:station:wmo:42048:1,2016-05-07T17:30:00Z,27.9396,-96.8429,2.0,22.6294,11111222 
TABS,ioos:station:wmo:42048:1,2016-05-07T18:00:00Z,27.9396,-96.8429,2.0,22.5884,11111222 
TABS,ioos:station:wmo:42048:1,2016-05-07T18:30:00Z,27.9396,-96.8429,2.0,22.5747,11111222 
TABS,ioos:station:wmo:42048:1,2016-05-07T19:00:00Z,27.9396,-96.8429,2.0,22.5619,11111222 
TABS,ioos:station:wmo:42048:1,2016-05-07T19:30:00Z,27.9396,-96.8429,2.0,22.5513,11111222 
TABS,ioos:station:wmo:42048:1,2016-05-07T20:00:00Z,27.9396,-96.8429,2.0,22.5984,11111222 
TABS,ioos:station:wmo:42048:1,2016-05-07T20:30:00Z,27.9396,-96.8429,2.0,22.5414,11111222 
TABS,ioos:station:wmo:42048:1,2016-05-07T21:00:00Z,27.9396,-96.8429,2.0,22.5911,11111222 
TABS,ioos:station:wmo:42048:1,2016-05-07T21:30:00Z,27.9396,-96.8429,2.0,22.629,11111222 
TABS,ioos:station:wmo:42048:1,2016-05-07T22:00:00Z,27.9396,-96.8429,2.0,22.6645,11111222 
TABS,ioos:station:wmo:42048:1,2016-05-07T22:30:00Z,27.9396,-96.8429,2.0,22.7109,11111222 
TABS,ioos:station:wmo:42048:1,2016-05-07T23:00:00Z,27.9396,-96.8429,2.0,22.8144,11111222 
TABS,ioos:station:wmo:42048:1,2016-05-07T23:30:00Z,27.9396,-96.8429,2.0,22.8927,11111222 
TABS,ioos:station:wmo:42048:1,2016-05-08T00:00:00Z,27.9396,-96.8429,2.0,23.0212,11111222 
TABS,ioos:station:wmo:42048:1,2016-05-08T00:30:00Z,27.9396,-96.8429,2.0,23.0484,11111222 
TABS,ioos:station:wmo:42048:1,2016-05-08T01:00:00Z,27.9396,-96.8429,2.0,23.0927,11111222 
TABS,ioos:station:wmo:42048:1,2016-05-08T01:30:00Z,27.9396,-96.8429,2.0,23.091,11111222 
TABS,ioos:station:wmo:42048:1,2016-05-08T02:00:00Z,27.9396,-96.8429,2.0,23.1048,11111222 
TABS,ioos:station:wmo:42048:1,2016-05-08T02:30:00Z,27.9396,-96.8429,2.0,23.1625,11111222 
TABS,ioos:station:wmo:42048:1,2016-05-08T03:00:00Z,27.9396,-96.8429,2.0,23.1772,11111222 
TABS,ioos:station:wmo:42048:1,2016-05-08T03:30:00Z,27.9396,-96.8429,2.0,23.2556,11111222 
TABS,ioos:station:wmo:42048:1,2016-05-08T04:00:00Z,27.9396,-96.8429,2.0,23.2749,11111222 
TABS,ioos:station:wmo:42048:1,2016-05-08T04:30:00Z,27.9396,-96.8429,2.0,23.3011,11111222 
TABS,ioos:station:wmo:42048:1,2016-05-08T05:00:00Z,27.9396,-96.8429,2.0,23.3871,11111222 
TABS,ioos:station:wmo:42048:1,2016-05-08T05:30:00Z,27.9396,-96.8429,2.0,23.4148,11111222 
TABS,ioos:station:wmo:42048:1,2016-05-08T06:00:00Z,27.9396,-96.8429,2.0,23.4617,11111222 
TABS,ioos:station:wmo:42048:1,2016-05-08T06:30:00Z,27.9396,-96.8429,2.0,23.4707,11111222 
TABS,ioos:station:wmo:42048:1,2016-05-08T07:00:00Z,27.9396,-96.8429,2.0,23.56,11111222 
TABS,ioos:station:wmo:42048:1,2016-05-08T07:30:00Z,27.9396,-96.8429,2.0,23.6648,11111222 
TABS,ioos:station:wmo:42048:1,2016-05-08T08:00:00Z,27.9396,-96.8429,2.0,23.746,11111222 
TABS,ioos:station:wmo:42048:1,2016-05-08T08:30:00Z,27.9396,-96.8429,2.0,23.8269,11111222 
TABS,ioos:station:wmo:42048:1,2016-05-08T09:00:00Z,27.9396,-96.8429,2.0,23.9126,11111222 
TABS,ioos:station:wmo:42048:1,2016-05-08T09:30:00Z,27.9396,-96.8429,2.0,23.9938,11111222 
TABS,ioos:station:wmo:42048:1,2016-05-08T10:00:00Z,27.9396,-96.8429,2.0,24.0738,11111222 
TABS,ioos:station:wmo:42048:1,2016-05-08T10:30:00Z,27.9396,-96.8429,2.0,24.1566,11111222 
TABS,ioos:station:wmo:42048:1,2016-05-08T11:00:00Z,27.9396,-96.8429,2.0,24.2798,11111222 
TABS,ioos:station:wmo:42048:1,2016-05-08T11:30:00Z,27.9396,-96.8429,2.0,24.3448,11111222 
TABS,ioos:station:wmo:42048:1,2016-05-08T12:00:00Z,27.9396,-96.8429,2.0,24.504,11111222 
TABS,ioos:station:wmo:42048:1,2016-05-08T12:30:00Z,27.9396,-96.8429,2.0,24.6473,11111222 
TABS,ioos:station:wmo:42048:1,2016-05-08T13:00:00Z,27.9396,-96.8429,2.0,24.772,11111222 
TABS,ioos:station:wmo:42048:1,2016-05-08T13:30:00Z,27.9396,-96.8429,2.0,24.7545,11111222 
TABS,ioos:station:wmo:42048:1,2016-05-08T14:00:00Z,27.9396,-96.8429,2.0,24.8103,11111222 
TABS,ioos:station:wmo:42048:1,2016-05-08T14:30:00Z,27.9396,-96.8429,2.0,24.9548,11111222 
TABS,ioos:station:wmo:42048:1,2016-05-08T15:00:00Z,27.9396,-96.8429,2.0,24.9297,11111222 
TABS,ioos:station:wmo:42048:1,2016-05-08T15:30:00Z,27.9396,-96.8429,2.0,24.942,11111222 
TABS,ioos:station:wmo:42048:1,2016-05-08T16:00:00Z,27.9396,-96.8429,2.0,24.9175,11111222 
TABS,ioos:station:wmo:42048:1,2016-05-08T16:30:00Z,27.9396,-96.8429,2.0,25.0568,11111222 
TABS,ioos:station:wmo:42048:1,2016-05-08T17:00:00Z,27.9396,-96.8429,2.0,25.0519,11111222 
TABS,ioos:station:wmo:42048:1,2016-05-08T17:30:00Z,27.9396,-96.8429,2.0,25.1546,11111222 
TABS,ioos:station:wmo:42048:1,2016-05-08T18:00:00Z,27.9396,-96.8429,2.0,25.1408,11111222 
TABS,ioos:station:wmo:42048:1,2016-05-08T18:30:00Z,27.9396,-96.8429,2.0,25.1768,11111222 
TABS,ioos:station:wmo:42048:1,2016-05-08T19:00:00Z,27.9396,-96.8429,2.0,25.1573,11111222 
TABS,ioos:station:wmo:42048:1,2016-05-08T19:30:00Z,27.9396,-96.8429,2.0,25.3571,11111222 
TABS,ioos:station:wmo:42048:1,2016-05-08T20:00:00Z,27.9396,-96.8429,2.0,25.5138,11111222 
TABS,ioos:station:wmo:42048:1,2016-05-08T20:30:00Z,27.9396,-96.8429,2.0,25.6669,11111222 
TABS,ioos:station:wmo:42048:1,2016-05-08T21:00:00Z,27.9396,-96.8429,2.0,25.8659,11111222 
TABS,ioos:station:wmo:42048:1,2016-05-08T21:30:00Z,27.9396,-96.8429,2.0,26.0847,11111222 
TABS,ioos:station:wmo:42048:1,2016-05-08T22:00:00Z,27.9396,-96.8429,2.0,26.2056,11111222 
TABS,ioos:station:wmo:42048:1,2016-05-08T22:30:00Z,27.9396,-96.8429,2.0,26.2257,11111222 
TABS,ioos:station:wmo:42048:1,2016-05-08T23:00:00Z,27.9396,-96.8429,2.0,26.3856,11111222 
TABS,ioos:station:wmo:42048:1,2016-05-08T23:30:00Z,27.9396,-96.8429,2.0,26.5292,11111222 
TABS,ioos:station:wmo:42048:1,2016-05-09T00:00:00Z,27.9396,-96.8429,2.0,26.6572,11111222 
TABS,ioos:station:wmo:42048:1,2016-05-09T00:30:00Z,27.9396,-96.8429,2.0,26.595,11111222 
TABS,ioos:station:wmo:42048:1,2016-05-09T01:00:00Z,27.9396,-96.8429,2.0,26.8479,11111222 
TABS,ioos:station:wmo:42048:1,2016-05-09T01:30:00Z,27.9396,-96.8429,2.0,27.0074,11111222 
TABS,ioos:station:wmo:42048:1,2016-05-09T02:00:00Z,27.9396,-96.8429,2.0,27.0354,11111222 
TABS,ioos:station:wmo:42048:1,2016-05-09T02:30:00Z,27.9396,-96.8429,2.0,27.0741,11111222 
TABS,ioos:station:wmo:42048:1,2016-05-09T03:00:00Z,27.9396,-96.8429,2.0,27.1463,11111222 
TABS,ioos:station:wmo:42048:1,2016-05-09T03:30:00Z,27.9396,-96.8429,2.0,27.1911,11111222 
TABS,ioos:station:wmo:42048:1,2016-05-09T04:00:00Z,27.9396,-96.8429,2.0,27.1861,11111222 
TABS,ioos:station:wmo:42048:1,2016-05-09T04:30:00Z,27.9396,-96.8429,2.0,27.2359,11111222 
TABS,ioos:station:wmo:42048:1,2016-05-09T05:00:00Z,27.9396,-96.8429,2.0,27.3824,11111222 
TABS,ioos:station:wmo:42048:1,2016-05-09T05:30:00Z,27.9396,-96.8429,2.0,27.5115,11111222 
TABS,ioos:station:wmo:42048:1,2016-05-09T06:00:00Z,27.9396,-96.8429,2.0,27.5731,11111222 
TABS,ioos:station:wmo:42048:1,2016-05-09T06:30:00Z,27.9396,-96.8429,2.0,27.8286,11111222 
TABS,ioos:station:wmo:42048:1,2016-05-09T07:00:00Z,27.9396,-96.8429,2.0,27.9681,11111222 
TABS,ioos:station:wmo:42048:1,2016-05-09T07:30:00Z,27.9396,-96.8429,2.0,27.7529,11111222 
TABS,ioos:station:wmo:42048:1,2016-05-09T08:00:00Z,27.9396,-96.8429,2.0,27.6944,11111222 
TABS,ioos:station:wmo:42048:1,2016-05-09T08:30:00Z,27.9396,-96.8429,2.0,27.8161,11111222 
TABS,ioos:station:wmo:42048:1,2016-05-09T09:00:00Z,27.9396,-96.8429,2.0,27.8561,11111222 
TABS,ioos:station:wmo:42048:1,2016-05-09T09:30:00Z,27.9396,-96.8429,2.0,27.88,11111222 
TABS,ioos:station:wmo:42048:1,2016-05-09T10:00:00Z,27.9396,-96.8429,2.0,27.9733,11111222 
TABS,ioos:station:wmo:42048:1,2016-05-09T10:30:00Z,27.9396,-96.8429,2.0,28.0304,11111222 
TABS,ioos:station:wmo:42048:1,2016-05-09T11:00:00Z,27.9396,-96.8429,2.0,27.8653,11111222 
TABS,ioos:station:wmo:42048:1,2016-05-09T11:30:00Z,27.9396,-96.8429,2.0,27.5824,11111222 
TABS,ioos:station:wmo:42048:1,2016-05-09T12:00:00Z,27.9396,-96.8429,2.0,27.6863,11111222 
TABS,ioos:station:wmo:42048:1,2016-05-09T12:30:00Z,27.9396,-96.8429,2.0,27.9342,11111222 
TABS,ioos:station:wmo:42048:1,2016-05-09T13:00:00Z,27.9396,-96.8429,2.0,27.8763,11111222 
TABS,ioos:station:wmo:42048:1,2016-05-09T13:30:00Z,27.9396,-96.8429,2.0,27.9382,11111222 
TABS,ioos:station:wmo:42048:1,2016-05-09T14:00:00Z,27.9396,-96.8429,2.0,28.0816,11111222 
TABS,ioos:station:wmo:42048:1,2016-05-09T14:30:00Z,27.9396,-96.8429,2.0,28.2006,11111222 
TABS,ioos:station:wmo:42048:1,2016-05-09T15:00:00Z,27.9396,-96.8429,2.0,28.215,11111222 
TABS,ioos:station:wmo:42048:1,2016-05-09T15:30:00Z,27.9396,-96.8429,2.0,28.2101,11111222 
TABS,ioos:station:wmo:42048:1,2016-05-09T16:00:00Z,27.9396,-96.8429,2.0,28.0855,11111222 
TABS,ioos:station:wmo:42048:1,2016-05-09T16:30:00Z,27.9396,-96.8429,2.0,28.0742,11111222 
TABS,ioos:station:wmo:42048:1,2016-05-09T17:00:00Z,27.9396,-96.8429,2.0,28.1082,11111222 
TABS,ioos:station:wmo:42048:1,2016-05-09T17:30:00Z,27.9396,-96.8429,2.0,28.0667,11111222 
TABS,ioos:station:wmo:42048:1,2016-05-09T18:00:00Z,27.9396,-96.8429,2.0,28.063,11111222 
TABS,ioos:station:wmo:42048:1,2016-05-09T18:30:00Z,27.9396,-96.8429,2.0,28.0796,11111222 
TABS,ioos:station:wmo:42048:1,2016-05-09T19:00:00Z,27.9396,-96.8429,2.0,27.9772,11111222 
TABS,ioos:station:wmo:42048:1,2016-05-09T19:30:00Z,27.9396,-96.8429,2.0,28.0407,11111222 
TABS,ioos:station:wmo:42048:1,2016-05-09T20:00:00Z,27.9396,-96.8429,2.0,28.0985,11111222 
TABS,ioos:station:wmo:42048:1,2016-05-09T20:30:00Z,27.9396,-96.8429,2.0,28.1794,11111222 
TABS,ioos:station:wmo:42048:1,2016-05-09T21:00:00Z,27.9396,-96.8429,2.0,28.3305,11111222 
TABS,ioos:station:wmo:42048:1,2016-05-09T21:30:00Z,27.9396,-96.8429,2.0,28.4411,11111222 
TABS,ioos:station:wmo:42048:1,2016-05-09T22:00:00Z,27.9396,-96.8429,2.0,28.505,11111222 
TABS,ioos:station:wmo:42048:1,2016-05-09T22:30:00Z,27.9396,-96.8429,2.0,28.569,11111222 
TABS,ioos:station:wmo:42048:1,2016-05-09T23:00:00Z,27.9396,-96.8429,2.0,28.8927,11111222 
TABS,ioos:station:wmo:42048:1,2016-05-09T23:30:00Z,27.9396,-96.8429,2.0,29.0388,11111222 
TABS,ioos:station:wmo:42048:1,2016-05-10T00:00:00Z,27.9396,-96.8429,2.0,29.4275,11111222 
TABS,ioos:station:wmo:42048:1,2016-05-10T00:30:00Z,27.9396,-96.8429,2.0,29.6459,11111222 
TABS,ioos:station:wmo:42048:1,2016-05-10T01:00:00Z,27.9396,-96.8429,2.0,29.7661,11111222 
TABS,ioos:station:wmo:42048:1,2016-05-10T01:30:00Z,27.9396,-96.8429,2.0,29.833,11111222 
TABS,ioos:station:wmo:42048:1,2016-05-10T02:00:00Z,27.9396,-96.8429,2.0,29.9015,11111222 
TABS,ioos:station:wmo:42048:1,2016-05-10T02:30:00Z,27.9396,-96.8429,2.0,29.8222,11111222 
TABS,ioos:station:wmo:42048:1,2016-05-10T03:00:00Z,27.9396,-96.8429,2.0,29.877,11111222 
TABS,ioos:station:wmo:42048:1,2016-05-10T03:30:00Z,27.9396,-96.8429,2.0,29.9425,11111222 
TABS,ioos:station:wmo:42048:1,2016-05-10T04:00:00Z,27.9396,-96.8429,2.0,29.9535,11111222 
TABS,ioos:station:wmo:42048:1,2016-05-10T04:30:00Z,27.9396,-96.8429,2.0,30.073,11111222 
TABS,ioos:station:wmo:42048:1,2016-05-10T05:00:00Z,27.9396,-96.8429,2.0,30.2111,11111222 
TABS,ioos:station:wmo:42048:1,2016-05-10T05:30:00Z,27.9396,-96.8429,2.0,30.3377,11111222 
TABS,ioos:station:wmo:42048:1,2016-05-10T06:00:00Z,27.9396,-96.8429,2.0,30.4419,11111222 
TABS,ioos:station:wmo:42048:1,2016-05-10T06:30:00Z,27.9396,-96.8429,2.0,30.5257,11111222 
TABS,ioos:station:wmo:42048:1,2016-05-10T07:00:00Z,27.9396,-96.8429,2.0,30.6207,11111222 
TABS,ioos:station:wmo:42048:1,2016-05-10T07:30:00Z,27.9396,-96.8429,2.0,30.5206,11111222 
TABS,ioos:station:wmo:42048:1,2016-05-10T08:00:00Z,27.9396,-96.8429,2.0,30.6355,11111222 
TABS,ioos:station:wmo:42048:1,2016-05-10T08:30:00Z,27.9396,-96.8429,2.0,30.6998,11111222 
TABS,ioos:station:wmo:42048:1,2016-05-10T09:00:00Z,27.9396,-96.8429,2.0,30.8041,11111222 
TABS,ioos:station:wmo:42048:1,2016-05-10T09:30:00Z,27.9396,-96.8429,2.0,30.8493,11111222 
TABS,ioos:station:wmo:42048:1,2016-05-10T10:00:00Z,27.9396,-96.8429,2.0,30.5193,11111222 
TABS,ioos:station:wmo:42048:1,2016-05-10T10:30:00Z,27.9396,-96.8429,2.0,30.5497,11111222 
TABS,ioos:station:wmo:42048:1,2016-05-10T11:00:00Z,27.9396,-96.8429,2.0,30.4831,11111222 
TABS,ioos:station:wmo:42048:1,2016-05-10T11:30:00Z,27.9396,-96.8429,2.0,30.2489,11111222 